QPF
0.07 0.04 0.01 0.02 0.03 0.04 0.03 0.04 0.05 0.07 0.06 0.05 0.06 0.09 0.08 0.06 0.05 0.05 0.06 0.06 0.06 0.06 0.07 0.07 0.06 0.07 0.05 0.05 0.06 0.08 0.10 0.11 0.11 0.11 0.12 0.11 0.10 0.07 0.06 0.06 0.08 0.11 0.14
0.07 0.03 0.01 0.02 0.02 0.03 0.04 0.04 0.04 0.05 0.06 0.06 0.08 0.08 0.07 0.06 0.06 0.05 0.08 0.10 0.08 0.06 0.06 0.06 0.08 0.07 0.07 0.08 0.09 0.10 0.13 0.12 0.12 0.12 0.11 0.11 0.10 0.08 0.07 0.06 0.08 0.13 0.12
0.05 0.03 0.01 0.02 0.03 0.04 0.03 0.04 0.03 0.03 0.05 0.07 0.10 0.08 0.06 0.05 0.05 0.05 0.08 0.08 0.06 0.06 0.06 0.06 0.09 0.08 0.07 0.08 0.09 0.16 0.20 0.15 0.13 0.16 0.13 0.15 0.13 0.10 0.08 0.07 0.08 0.09 0.10
0.02 0.02 0.01 0.04 0.04 0.04 0.03 0.03 0.03 0.04 0.04 0.05 0.07 0.08 0.06 0.05 0.04 0.06 0.07 0.08 0.07 0.07 0.06 0.06 0.07 0.07 0.06 0.05 0.05 0.08 0.11 0.11 0.12 0.18 0.18 0.18 0.15 0.14 0.12 0.08 0.08 0.09 0.09
0.02 0.02 0.02 0.04 0.05 0.05 0.04 0.04 0.04 0.05 0.05 0.05 0.06 0.06 0.07 0.06 0.07 0.10 0.11 0.10 0.08 0.08 0.07 0.07 0.07 0.07 0.06 0.06 0.05 0.05 0.05 0.06 0.07 0.15 0.19 0.18 0.16 0.14 0.12 0.09 0.08 0.08 0.09
0.02 0.02 0.01 0.03 0.04 0.04 0.03 0.02 0.02 0.03 0.03 0.02 0.05 0.07 0.09 0.10 0.09 0.12 0.12 0.08 0.06 0.07 0.07 0.07 0.07 0.07 0.06 0.05 0.05 0.04 0.04 0.05 0.05 0.14 0.22 0.22 0.18 0.14 0.11 0.10 0.09 0.09 0.10
0.02 0.01 0.01 0.02 0.02 0.03 0.01 0.01 0.01 0.02 0.02 0.02 0.04 0.06 0.07 0.09 0.14 0.10 0.08 0.06 0.05 0.07 0.08 0.08 0.08 0.09 0.09 0.07 0.05 0.05 0.07 0.07 0.08 0.15 0.26 0.24 0.22 0.18 0.13 0.12 0.09 0.09 0.10
0.01 0.01 0.01 0.01 0.02 0.03 0.02 0.01 0.01 0.01 0.01 0.02 0.03 0.04 0.06 0.06 0.11 0.09 0.08 0.07 0.07 0.08 0.10 0.11 0.10 0.10 0.09 0.07 0.06 0.05 0.08 0.11 0.12 0.12 0.20 0.21 0.21 0.18 0.16 0.14 0.10 0.10 0.12
0.01 0.01 0.00 0.01 0.01 0.02 0.02 0.02 0.01 0.01 0.01 0.02 0.03 0.04 0.04 0.04 0.07 0.09 0.11 0.09 0.09 0.11 0.12 0.10 0.09 0.06 0.05 0.05 0.05 0.05 0.08 0.11 0.14 0.13 0.12 0.15 0.14 0.13 0.14 0.13 0.11 0.10 0.11
0.00 0.00 0.00 0.01 0.01 0.00 0.01 0.01 0.01 0.00 0.00 0.01 0.02 0.03 0.04 0.06 0.07 0.07 0.07 0.08 0.11 0.14 0.14 0.10 0.07 0.04 0.03 0.03 0.03 0.04 0.05 0.10 0.13 0.12 0.11 0.10 0.11 0.11 0.13 0.14 0.12 0.11 0.14
0.00 0.00 0.00 0.01 0.01 0.01 0.00 0.00 0.00 0.00 0.00 0.01 0.01 0.02 0.05 0.10 0.07 0.05 0.05 0.07 0.09 0.09 0.10 0.09 0.08 0.06 0.04 0.03 0.03 0.04 0.05 0.10 0.10 0.09 0.09 0.09 0.12 0.13 0.13 0.12 0.12 0.12 0.15
0.00 0.00 0.01 0.01 0.01 0.01 0.00 0.00 0.01 0.01 0.01 0.03 0.02 0.02 0.04 0.06 0.06 0.03 0.03 0.05 0.08 0.09 0.08 0.08 0.10 0.09 0.07 0.06 0.05 0.05 0.06 0.05 0.06 0.06 0.06 0.08 0.11 0.15 0.15 0.14 0.12 0.12 0.12
0.01 0.01 0.02 0.01 0.00 0.00 0.00 0.01 0.01 0.01 0.02 0.03 0.03 0.02 0.03 0.03 0.04 0.04 0.04 0.04 0.05 0.07 0.08 0.10 0.09 0.07 0.06 0.06 0.05 0.06 0.06 0.05 0.06 0.07 0.07 0.08 0.15 0.21 0.19 0.14 0.13 0.18 0.20
0.01 0.01 0.01 0.01 0.01 0.00 0.00 0.00 0.00 0.01 0.01 0.03 0.03 0.02 0.03 0.03 0.03 0.04 0.04 0.03 0.05 0.09 0.18 0.18 0.10 0.07 0.06 0.05 0.05 0.06 0.07 0.04 0.05 0.06 0.07 0.10 0.18 0.29 0.27 0.21 0.17 0.22 0.28
0.01 0.01 0.01 0.00 0.00 0.00 0.00 0.00 0.00 0.02 0.02 0.02 0.01 0.02 0.03 0.03 0.03 0.03 0.02 0.04 0.07 0.12 0.18 0.18 0.09 0.07 0.06 0.05 0.04 0.03 0.03 0.03 0.05 0.07 0.08 0.09 0.13 0.23 0.30 0.27 0.23 0.26 0.33
0.01 0.01 0.00 0.00 0.00 0.00 0.00 0.00 0.01 0.02 0.02 0.02 0.01 0.02 0.02 0.03 0.02 0.02 0.03 0.03 0.07 0.11 0.15 0.16 0.09 0.08 0.07 0.05 0.03 0.02 0.02 0.04 0.07 0.08 0.07 0.09 0.11 0.15 0.21 0.18 0.17 0.16 0.23
0.01 0.01 0.01 0.00 0.00 0.00 0.00 0.00 0.01 0.01 0.01 0.02 0.01 0.02 0.01 0.01 0.01 0.01 0.02 0.03 0.06 0.09 0.10 0.12 0.09 0.06 0.04 0.03 0.02 0.02 0.02 0.04 0.08 0.08 0.07 0.08 0.10 0.13 0.15 0.13 0.11 0.11 0.11
0.02 0.01 0.00 0.01 0.01 0.00 0.00 0.00 0.00 0.00 0.01 0.01 0.01 0.01 0.01 0.00 0.00 0.00 0.01 0.01 0.04 0.07 0.09 0.08 0.08 0.05 0.04 0.03 0.03 0.02 0.02 0.04 0.05 0.05 0.04 0.05 0.05 0.04 0.06 0.07 0.07 0.08 0.10
0.02 0.03 0.01 0.01 0.01 0.01 0.00 0.00 0.00 0.00 0.00 0.01 0.01 0.00 0.01 0.00 0.00 0.00 0.00 0.01 0.02 0.04 0.06 0.07 0.07 0.06 0.05 0.04 0.03 0.03 0.02 0.02 0.03 0.03 0.03 0.02 0.02 0.02 0.02 0.03 0.03 0.04 0.06
0.01 0.02 0.03 0.02 0.01 0.02 0.01 0.00 0.00 0.00 0.00 0.01 0.00 0.01 0.01 0.00 0.00 0.00 0.00 0.01 0.01 0.01 0.03 0.05 0.06 0.06 0.06 0.05 0.03 0.02 0.02 0.02 0.02 0.02 0.02 0.01 0.01 0.02 0.01 0.01 0.02 0.04 0.04
0.02 0.03 0.03 0.03 0.03 0.03 0.02 0.00 0.00 0.00 0.00 0.01 0.00 0.01 0.01 0.00 0.00 0.00 0.00 0.00 0.01 0.00 0.01 0.02 0.03 0.04 0.05 0.04 0.03 0.02 0.01 0.01 0.01 0.01 0.01 0.01 0.01 0.01 0.01 0.01 0.01 0.01 0.01
0.01 0.03 0.03 0.03 0.03 0.03 0.02 0.01 0.00 0.00 0.00 0.00 0.00 0.01 0.00 0.00 0.00 0.00 0.00 0.01 0.01 0.00 0.00 0.00 0.01 0.02 0.02 0.02 0.03 0.02 0.02 0.01 0.01 0.01 0.01 0.01 0.01 0.01 0.01 0.01 0.00 0.00 0.00
0.01 0.01 0.02 0.02 0.02 0.02 0.03 0.03 0.01 0.00 0.00 0.00 0.00 0.01 0.00 0.00 0.00 0.00 0.00 0.00 0.01 0.01 0.00 0.00 0.00 0.01 0.01 0.02 0.02 0.03 0.03 0.02 0.02 0.01 0.01 0.01 0.01 0.01 0.01 0.01 0.00 0.00 0.00
0.01 0.01 0.02 0.01 0.01 0.02 0.03 0.04 0.02 0.01 0.00 0.00 0.00 0.01 0.00 0.00 0.00 0.00 0.00 0.00 0.01 0.01 0.01 0.01 0.01 0.01 0.02 0.02 0.02 0.02 0.02 0.01 0.01 0.01 0.01 0.01 0.00 0.01 0.01 0.01 0.00 0.01 0.00
0.01 0.02 0.01 0.00 0.00 0.01 0.02 0.03 0.03 0.01 0.01 0.01 0.00 0.01 0.00 0.00 0.01 0.00 0.00 0.01 0.01 0.00 0.00 0.00 0.01 0.01 0.01 0.01 0.02 0.02 0.01 0.01 0.01 0.01 0.01 0.01 0.00 0.00 0.01 0.01 0.00 0.01 0.01
0.01 0.02 0.01 0.00 0.00 0.01 0.02 0.02 0.03 0.03 0.02 0.02 0.01 0.01 0.01 0.00 0.01 0.01 0.01 0.00 0.00 0.00 0.00 0.00 0.00 0.01 0.01 0.02 0.02 0.02 0.01 0.01 0.01 0.00 0.01 0.01 0.01 0.01 0.01 0.00 0.00 0.01 0.01
MSLP
1011.54 1011.24 1010.96 1010.75 1010.65 1010.64 1010.72 1010.84 1010.98 1011.12 1011.24 1011.37 1011.52 1011.71 1011.95 1012.24 1012.57 1012.90 1013.20 1013.47 1013.69 1013.85 1013.97 1014.06 1014.13 1014.18 1014.23 1014.26 1014.27 1014.26 1014.25 1014.23 1014.23 1014.24 1014.28 1014.34 1014.41 1014.50 1014.58 1014.65 1014.70 1014.76 1014.81
1011.50 1011.26 1011.07 1010.94 1010.90 1010.92 1010.99 1011.08 1011.15 1011.22 1011.29 1011.40 1011.56 1011.79 1012.09 1012.46 1012.85 1013.23 1013.56 1013.83 1014.02 1014.15 1014.23 1014.29 1014.35 1014.40 1014.44 1014.47 1014.48 1014.47 1014.44 1014.40 1014.38 1014.38 1014.42 1014.49 1014.58 1014.68 1014.77 1014.85 1014.90 1014.95 1015.00
1011.40 1011.25 1011.14 1011.10 1011.13 1011.20 1011.28 1011.34 1011.37 1011.38 1011.40 1011.47 1011.62 1011.87 1012.21 1012.61 1013.04 1013.45 1013.78 1014.04 1014.21 1014.31 1014.37 1014.42 1014.48 1014.53 1014.59 1014.63 1014.65 1014.63 1014.60 1014.55 1014.52 1014.52 1014.56 1014.64 1014.74 1014.85 1014.96 1015.05 1015.11 1015.15 1015.18
1011.26 1011.18 1011.16 1011.22 1011.33 1011.46 1011.57 1011.62 1011.63 1011.60 1011.57 1011.61 1011.73 1011.98 1012.32 1012.74 1013.17 1013.58 1013.90 1014.14 1014.29 1014.38 1014.43 1014.49 1014.55 1014.64 1014.72 1014.78 1014.80 1014.79 1014.75 1014.70 1014.67 1014.66 1014.71 1014.80 1014.92 1015.05 1015.16 1015.25 1015.31 1015.35 1015.38
1011.09 1011.08 1011.15 1011.30 1011.50 1011.70 1011.85 1011.93 1011.93 1011.87 1011.82 1011.82 1011.92 1012.14 1012.46 1012.86 1013.27 1013.65 1013.96 1014.17 1014.31 1014.40 1014.47 1014.54 1014.64 1014.75 1014.86 1014.94 1014.98 1014.97 1014.93 1014.88 1014.84 1014.84 1014.89 1014.98 1015.11 1015.24 1015.36 1015.44 1015.50 1015.53 1015.55
1010.92 1010.95 1011.09 1011.33 1011.61 1011.89 1012.10 1012.22 1012.23 1012.17 1012.10 1012.08 1012.14 1012.33 1012.62 1012.98 1013.37 1013.72 1014.00 1014.21 1014.34 1014.44 1014.53 1014.64 1014.78 1014.92 1015.05 1015.16 1015.20 1015.20 1015.15 1015.09 1015.04 1015.04 1015.08 1015.18 1015.30 1015.43 1015.54 1015.61 1015.66 1015.67 1015.69
1010.74 1010.81 1011.00 1011.30 1011.66 1012.01 1012.29 1012.45 1012.49 1012.45 1012.37 1012.33 1012.38 1012.53 1012.79 1013.12 1013.46 1013.79 1014.05 1014.26 1014.41 1014.53 1014.66 1014.81 1014.98 1015.16 1015.32 1015.43 1015.47 1015.46 1015.40 1015.32 1015.26 1015.25 1015.29 1015.38 1015.49 1015.60 1015.69 1015.74 1015.77 1015.77 1015.77
1010.56 1010.64 1010.86 1011.21 1011.63 1012.04 1012.37 1012.57 1012.65 1012.63 1012.57 1012.53 1012.57 1012.70 1012.93 1013.23 1013.55 1013.86 1014.12 1014.34 1014.51 1014.68 1014.85 1015.04 1015.25 1015.45 1015.62 1015.73 1015.77 1015.74 1015.66 1015.57 1015.50 1015.47 1015.50 1015.57 1015.66 1015.75 1015.81 1015.84 1015.84 1015.82 1015.81
1010.37 1010.45 1010.69 1011.06 1011.51 1011.95 1012.32 1012.56 1012.68 1012.69 1012.65 1012.63 1012.67 1012.80 1013.02 1013.30 1013.61 1013.92 1014.19 1014.42 1014.63 1014.83 1015.05 1015.28 1015.51 1015.74 1015.91 1016.02 1016.04 1016.00 1015.91 1015.80 1015.72 1015.68 1015.70 1015.75 1015.83 1015.89 1015.92 1015.92 1015.89 1015.85 1015.84
1010.18 1010.24 1010.48 1010.86 1011.32 1011.78 1012.16 1012.42 1012.56 1012.60 1012.59 1012.59 1012.65 1012.80 1013.02 1013.30 1013.62 1013.93 1014.21 1014.47 1014.71 1014.95 1015.20 1015.47 1015.73 1015.96 1016.14 1016.24 1016.26 1016.21 1016.11 1016.00 1015.92 1015.88 1015.89 1015.94 1015.99 1016.04 1016.05 1016.02 1015.97 1015.92 1015.90
1009.98 1010.04 1010.27 1010.64 1011.09 1011.53 1011.91 1012.18 1012.33 1012.39 1012.41 1012.44 1012.53 1012.70 1012.94 1013.24 1013.56 1013.88 1014.18 1014.46 1014.73 1015.00 1015.28 1015.57 1015.84 1016.09 1016.27 1016.37 1016.39 1016.34 1016.25 1016.15 1016.08 1016.05 1016.07 1016.12 1016.18 1016.21 1016.21 1016.17 1016.11 1016.06 1016.03
1009.79 1009.86 1010.09 1010.44 1010.86 1011.28 1011.63 1011.88 1012.03 1012.11 1012.15 1012.22 1012.34 1012.53 1012.80 1013.11 1013.45 1013.78 1014.10 1014.40 1014.68 1014.97 1015.26 1015.55 1015.84 1016.08 1016.27 1016.38 1016.41 1016.38 1016.32 1016.25 1016.21 1016.21 1016.25 1016.32 1016.38 1016.43 1016.43 1016.40 1016.35 1016.30 1016.29
1009.62 1009.71 1009.94 1010.28 1010.67 1011.05 1011.36 1011.59 1011.73 1011.82 1011.88 1011.98 1012.13 1012.35 1012.64 1012.97 1013.32 1013.66 1013.98 1014.28 1014.57 1014.86 1015.15 1015.44 1015.73 1015.97 1016.17 1016.30 1016.36 1016.36 1016.34 1016.31 1016.31 1016.35 1016.42 1016.52 1016.61 1016.67 1016.70 1016.70 1016.67 1016.65 1016.65
1009.48 1009.61 1009.85 1010.18 1010.54 1010.88 1011.15 1011.36 1011.49 1011.57 1011.66 1011.78 1011.95 1012.20 1012.51 1012.85 1013.20 1013.55 1013.86 1014.16 1014.43 1014.71 1014.99 1015.28 1015.56 1015.81 1016.02 1016.17 1016.26 1016.31 1016.34 1016.36 1016.41 1016.49 1016.59 1016.72 1016.84 1016.93 1017.00 1017.03 1017.04 1017.05 1017.09
1009.33 1009.52 1009.79 1010.12 1010.46 1010.77 1011.02 1011.20 1011.32 1011.41 1011.51 1011.65 1011.85 1012.11 1012.42 1012.77 1013.12 1013.46 1013.77 1014.05 1014.31 1014.58 1014.85 1015.12 1015.40 1015.65 1015.87 1016.05 1016.19 1016.28 1016.36 1016.43 1016.51 1016.63 1016.76 1016.91 1017.05 1017.18 1017.28 1017.36 1017.41 1017.47 1017.54
1009.16 1009.41 1009.72 1010.06 1010.39 1010.69 1010.93 1011.11 1011.24 1011.34 1011.46 1011.61 1011.82 1012.09 1012.40 1012.74 1013.08 1013.40 1013.70 1013.98 1014.24 1014.49 1014.75 1015.02 1015.29 1015.56 1015.80 1016.01 1016.18 1016.31 1016.43 1016.54 1016.65 1016.78 1016.93 1017.09 1017.24 1017.39 1017.52 1017.63 1017.74 1017.84 1017.96
1008.93 1009.23 1009.58 1009.94 1010.29 1010.61 1010.86 1011.06 1011.21 1011.34 1011.47 1011.64 1011.85 1012.10 1012.40 1012.73 1013.05 1013.37 1013.66 1013.93 1014.20 1014.46 1014.73 1015.00 1015.29 1015.57 1015.83 1016.06 1016.27 1016.44 1016.58 1016.71 1016.84 1016.97 1017.11 1017.26 1017.41 1017.55 1017.70 1017.84 1017.98 1018.13 1018.28
1008.61 1008.95 1009.33 1009.73 1010.11 1010.46 1010.76 1011.00 1011.20 1011.37 1011.52 1011.70 1011.90 1012.14 1012.41 1012.70 1013.01 1013.31 1013.61 1013.90 1014.18 1014.46 1014.75 1015.05 1015.36 1015.67 1015.95 1016.22 1016.45 1016.65 1016.82 1016.96 1017.08 1017.20 1017.31 1017.43 1017.55 1017.68 1017.82 1017.98 1018.14 1018.32 1018.51
1008.19 1008.56 1008.97 1009.40 1009.82 1010.23 1010.60 1010.92 1011.18 1011.39 1011.58 1011.76 1011.94 1012.15 1012.38 1012.64 1012.92 1013.21 1013.52 1013.83 1014.15 1014.47 1014.81 1015.15 1015.49 1015.83 1016.15 1016.44 1016.70 1016.92 1017.10 1017.24 1017.36 1017.45 1017.53 1017.61 1017.70 1017.80 1017.93 1018.08 1018.25 1018.45 1018.66
1007.71 1008.08 1008.49 1008.96 1009.44 1009.92 1010.37 1010.78 1011.12 1011.40 1011.62 1011.81 1011.97 1012.13 1012.31 1012.53 1012.77 1013.05 1013.37 1013.71 1014.07 1014.45 1014.84 1015.23 1015.61 1015.99 1016.34 1016.66 1016.95 1017.19 1017.38 1017.53 1017.64 1017.71 1017.77 1017.81 1017.86 1017.93 1018.03 1018.17 1018.35 1018.55 1018.77
1007.21 1007.55 1007.97 1008.45 1008.98 1009.54 1010.09 1010.60 1011.04 1011.39 1011.65 1011.84 1011.97 1012.09 1012.22 1012.38 1012.58 1012.85 1013.17 1013.54 1013.95 1014.38 1014.82 1015.26 1015.68 1016.09 1016.47 1016.82 1017.13 1017.39 1017.61 1017.77 1017.88 1017.95 1017.99 1018.01 1018.04 1018.08 1018.16 1018.29 1018.45 1018.66 1018.88
1006.77 1007.06 1007.45 1007.94 1008.51 1009.14 1009.78 1010.39 1010.92 1011.35 1011.66 1011.85 1011.97 1012.05 1012.12 1012.22 1012.39 1012.63 1012.95 1013.34 1013.78 1014.24 1014.72 1015.19 1015.65 1016.08 1016.48 1016.85 1017.18 1017.46 1017.70 1017.89 1018.02 1018.11 1018.16 1018.18 1018.20 1018.23 1018.30 1018.42 1018.58 1018.78 1019.01
1006.46 1006.68 1007.01 1007.47 1008.06 1008.74 1009.46 1010.16 1010.78 1011.28 1011.64 1011.86 1011.97 1012.01 1012.03 1012.09 1012.22 1012.43 1012.74 1013.14 1013.58 1014.06 1014.55 1015.03 1015.49 1015.92 1016.33 1016.70 1017.04 1017.35 1017.62 1017.85 1018.02 1018.14 1018.22 1018.27 1018.31 1018.35 1018.42 1018.53 1018.70 1018.90 1019.14
1006.35 1006.46 1006.70 1007.10 1007.67 1008.36 1009.13 1009.89 1010.59 1011.16 1011.57 1011.82 1011.94 1011.97 1011.97 1012.00 1012.10 1012.29 1012.58 1012.96 1013.39 1013.86 1014.34 1014.79 1015.23 1015.63 1016.01 1016.37 1016.72 1017.04 1017.35 1017.61 1017.84 1018.02 1018.15 1018.24 1018.31 1018.38 1018.47 1018.59 1018.76 1018.97 1019.21
1006.46 1006.43 1006.54 1006.85 1007.35 1008.02 1008.78 1009.58 1010.32 1010.95 1011.41 1011.71 1011.85 1011.90 1011.90 1011.93 1012.01 1012.19 1012.46 1012.82 1013.22 1013.66 1014.09 1014.49 1014.88 1015.23 1015.57 1015.90 1016.24 1016.57 1016.90 1017.22 1017.50 1017.74 1017.93 1018.08 1018.19 1018.29 1018.40 1018.54 1018.71 1018.93 1019.18
1006.79 1006.60 1006.55 1006.72 1007.11 1007.69 1008.41 1009.20 1009.95 1010.61 1011.12 1011.45 1011.65 1011.73 1011.77 1011.82 1011.91 1012.09 1012.36 1012.69 1013.06 1013.45 1013.82 1014.17 1014.48 1014.77 1015.06 1015.35 1015.66 1016.00 1016.34 1016.70 1017.03 1017.32 1017.57 1017.77 1017.93 1018.07 1018.20 1018.35 1018.53 1018.76 1019.01
Thickness
5777 5778 5777 5777 5778 5778 5779 5779 5780 5780 5780 5780 5780 5780 5780 5781 5781 5781 5781 5783 5783 5781 5780 5780 5780 5780 5780 5780 5780 5780 5779 5779 5778 5777 5776 5775 5775 5775 5775 5775 5775 5774 5774
5780 5777 5776 5776 5776 5776 5777 5777 5777 5778 5778 5778 5777 5777 5778 5778 5778 5778 5778 5779 5779 5777 5777 5777 5777 5778 5778 5778 5778 5777 5777 5777 5776 5775 5774 5774 5774 5773 5773 5773 5773 5772 5772
5780 5777 5774 5774 5774 5774 5775 5775 5775 5775 5775 5775 5775 5775 5775 5775 5775 5776 5775 5776 5775 5775 5774 5774 5774 5774 5775 5775 5775 5775 5775 5775 5774 5773 5773 5772 5772 5771 5771 5771 5771 5770 5770
5780 5776 5773 5772 5772 5772 5772 5772 5773 5773 5773 5772 5772 5772 5772 5772 5773 5773 5773 5773 5773 5772 5771 5771 5771 5771 5772 5772 5772 5772 5772 5772 5772 5772 5771 5770 5770 5769 5769 5768 5768 5768 5767
5777 5774 5770 5770 5769 5769 5770 5770 5770 5770 5770 5770 5770 5769 5770 5770 5770 5770 5770 5770 5770 5769 5769 5768 5768 5768 5769 5769 5769 5770 5770 5770 5769 5769 5768 5767 5767 5766 5766 5766 5765 5765 5765
5775 5772 5769 5768 5768 5767 5767 5767 5767 5768 5768 5768 5768 5767 5767 5767 5767 5767 5767 5767 5767 5766 5766 5766 5765 5765 5765 5765 5766 5767 5768 5768 5767 5766 5765 5764 5764 5763 5763 5763 5762 5762 5762
5773 5771 5768 5766 5766 5765 5765 5765 5765 5765 5765 5765 5765 5765 5765 5765 5764 5764 5764 5764 5764 5763 5763 5762 5762 5762 5762 5762 5763 5764 5764 5765 5764 5763 5762 5761 5760 5760 5760 5759 5759 5759 5759
5773 5770 5767 5765 5764 5763 5763 5762 5762 5762 5762 5762 5762 5762 5762 5761 5761 5761 5761 5761 5760 5760 5759 5759 5759 5759 5759 5759 5760 5760 5761 5762 5761 5760 5759 5758 5757 5757 5756 5756 5756 5756 5756
5773 5770 5767 5765 5763 5762 5761 5760 5760 5759 5759 5759 5759 5759 5759 5758 5758 5758 5757 5757 5757 5756 5756 5756 5756 5756 5756 5756 5756 5757 5757 5757 5756 5756 5755 5753 5753 5753 5753 5753 5752 5752 5752
5771 5771 5769 5767 5764 5761 5760 5759 5758 5757 5757 5757 5757 5757 5756 5756 5755 5755 5754 5754 5754 5753 5753 5753 5753 5753 5753 5753 5753 5753 5753 5753 5752 5751 5750 5750 5750 5749 5749 5749 5749 5749 5748
5767 5769 5769 5768 5765 5763 5760 5758 5757 5756 5755 5755 5755 5754 5754 5754 5753 5752 5752 5751 5751 5751 5751 5751 5751 5751 5751 5750 5750 5750 5749 5749 5748 5746 5746 5746 5746 5746 5746 5745 5745 5745 5744
5762 5766 5768 5767 5765 5763 5761 5757 5756 5755 5754 5754 5754 5753 5753 5752 5751 5750 5749 5749 5748 5749 5748 5748 5748 5748 5748 5748 5748 5747 5746 5745 5744 5742 5742 5743 5743 5743 5743 5742 5742 5741 5740
5763 5764 5766 5766 5764 5762 5759 5758 5756 5755 5754 5754 5753 5752 5751 5750 5748 5747 5746 5745 5745 5745 5746 5746 5746 5745 5746 5745 5744 5744 5743 5741 5739 5738 5737 5738 5739 5739 5739 5738 5737 5737 5737
5760 5761 5763 5764 5763 5761 5759 5757 5756 5754 5753 5752 5751 5750 5749 5748 5747 5746 5744 5743 5743 5743 5743 5743 5743 5743 5742 5742 5741 5739 5738 5736 5734 5733 5732 5733 5733 5734 5734 5733 5733 5732 5732
5758 5758 5760 5762 5761 5759 5757 5755 5754 5752 5751 5750 5749 5749 5747 5745 5744 5743 5742 5741 5741 5740 5740 5740 5740 5739 5738 5737 5736 5734 5733 5732 5730 5729 5727 5728 5728 5727 5727 5727 5727 5726 5725
5756 5757 5758 5759 5759 5758 5755 5754 5752 5751 5749 5748 5747 5746 5745 5744 5742 5740 5739 5738 5737 5737 5737 5736 5735 5734 5733 5731 5730 5729 5728 5727 5726 5724 5723 5722 5722 5722 5721 5721 5721 5720 5719
5757 5757 5756 5757 5757 5755 5753 5752 5750 5749 5747 5745 5744 5744 5743 5742 5740 5738 5736 5735 5734 5733 5732 5732 5730 5729 5728 5726 5725 5724 5723 5722 5720 5719 5718 5717 5716 5716 5715 5715 5715 5714 5713
5757 5756 5755 5756 5754 5752 5751 5749 5748 5746 5745 5743 5742 5741 5740 5739 5737 5735 5733 5731 5731 5730 5728 5726 5724 5722 5721 5720 5718 5718 5717 5716 5715 5714 5713 5712 5711 5710 5709 5709 5708 5708 5707
5756 5755 5753 5753 5751 5750 5748 5747 5745 5744 5742 5740 5739 5738 5737 5736 5734 5732 5729 5728 5727 5726 5724 5722 5719 5718 5715 5713 5713 5712 5711 5711 5710 5709 5708 5707 5706 5705 5703 5702 5702 5702 5701
5755 5754 5751 5750 5749 5748 5746 5744 5741 5740 5739 5737 5736 5735 5734 5732 5731 5729 5727 5725 5724 5721 5719 5717 5714 5713 5710 5709 5709 5707 5706 5706 5705 5704 5703 5702 5701 5699 5698 5697 5696 5695 5694
5752 5750 5748 5746 5745 5744 5741 5738 5734 5732 5733 5733 5732 5731 5730 5729 5727 5726 5724 5722 5719 5717 5715 5713 5711 5708 5705 5705 5701 5698 5699 5700 5699 5698 5697 5696 5695 5694 5693 5692 5690 5689 5688
5747 5747 5746 5744 5743 5741 5738 5737 5735 5732 5731 5730 5730 5728 5727 5726 5724 5723 5721 5718 5716 5713 5711 5709 5706 5702 5701 5701 5696 5690 5685 5686 5689 5691 5690 5689 5689 5688 5686 5686 5685 5684 5682
5743 5743 5744 5742 5741 5739 5737 5735 5733 5730 5727 5725 5724 5723 5724 5723 5721 5720 5718 5715 5713 5710 5707 5705 5703 5699 5695 5695 5695 5688 5680 5675 5678 5682 5683 5682 5682 5681 5680 5680 5679 5678 5677
5741 5742 5741 5739 5738 5736 5734 5731 5727 5722 5718 5719 5720 5719 5720 5719 5717 5716 5714 5712 5709 5707 5704 5702 5700 5697 5693 5688 5689 5689 5686 5682 5673 5670 5673 5675 5675 5674 5674 5674 5673 5672 5671
5739 5738 5737 5736 5734 5733 5730 5728 5724 5720 5719 5718 5718 5716 5716 5715 5714 5712 5711 5709 5706 5704 5701 5699 5696 5694 5691 5687 5684 5683 5681 5680 5677 5668 5663 5665 5667 5668 5668 5668 5667 5667 5666
5734 5733 5732 5730 5729 5728 5726 5725 5722 5718 5717 5715 5713 5712 5711 5711 5710 5709 5707 5705 5703 5701 5698 5696 5693 5691 5688 5686 5683 5680 5677 5673 5670 5667 5661 5659 5659 5661 5663 5663 5662 5661 5660